Location: Normandy Village
(37.8755°N, 122.2655°W)
Time: 05:31:57
(UTC+00:00)

Meteor 2-9 Rocket - Pass Details

Date: 22 September 2019
Orbit: 791 x 896 km, 81.3° (Epoch: 22 October)

Event Time Altitude Azimuth Distance (km) Brightness Sun altitude
Rises 13:28:56 0° 351° (N) 3,321 7.3 -6.3°
Reaches altitude 10° 13:31:20 10° 351° (N) 2,377 6.5 -5.8°
Maximum altitude 13:36:41 90° 273° (W) 797 4.1 -4.8°
Drops below altitude 10° 13:41:59 10° 173° (S) 2,348 6.6 -3.7°
Sets 13:44:20 0° 173° (S) 3,276 7.3 -3.3°
